Regional Weather Roundup
Issued by NWS

Home | Current Version | Previous Version | Text Only | Print | Product List | Glossary On
Versions: 1 2 3 4 5 6 7 8 9 10 11 12 13 14 15 16 17 18 19 20 21 22 23 24 25 26 27 28 29 30 31 32 33 34 35 36 37 38 39 40 41 42 43 44 45 46 47 48 49 50
000
ASUS43 KLOT 191708
RWRIL

ILLINOIS REGIONAL WEATHER ROUNDUP
NATIONAL WEATHER SERVICE CHICAGO/ROMEOVILLE IL
1100 AM CST FRI JAN 19 2018

NOTE: "FAIR" INDICATES FEW OR NO CLOUDS BELOW 12,000 FEET WITH NO
SIGNIFICANT WEATHER AND/OR OBSTRUCTIONS TO VISIBILITY.

* THESE STATIONS ARE NOT UNDER NWS QUALITY CONTROL. THEY ALSO MAY NOT
  REPORT WEATHER SUCH AS PRECIPITATION OR FOG.

ILZ001-002-007-009-015-016-024-191800-
NORTHWEST ILLINOIS

CITY           SKY/WX    TMP DP  RH WIND       PRES   REMARKS
MOLINE         FAIR      38  23  55 SW14      29.85F WCI  30
STERLING*      FAIR      37  24  59 SW8       29.86F WCI  31
SAVANNA*       FAIR      36  24  62 SW9       29.84F WCI  29
$$

ILZ003-004-008-010-011-017-018-191800-
NORTH CENTRAL ILLINOIS

CITY           SKY/WX    TMP DP  RH WIND       PRES   REMARKS
ROCKFORD       CLOUDY    34  23  64 S14       29.86F WCI  25
FREEPORT*      FAIR      32  24  71 SW18      29.83F WCI  20
ROCHELLE*      FAIR      34  26  72 SW12      29.87F WCI  26
DE KALB*       FAIR      33  25  71 S15       29.87F WCI  23
PERU*          FAIR      36  21  54 SW17      29.90F WCI  26
$$

ILZ005-006-012>014-019>023-191800-
NORTHEAST ILLINOIS

CITY           SKY/WX    TMP DP  RH WIND       PRES   REMARKS
CHICAGO-OHARE  PTSUNNY   34  20  56 SW17G24   29.88F WCI  23
CHICAGO-MIDWAY PTSUNNY   36  21  54 SW18      29.90F WCI  26
AURORA         FAIR      34  22  61 S14       29.89F WCI  25
LANSING*       FAIR      32  23  70 SW16      29.94S WCI  21
JOLIET*        FAIR      35  22  57 SW12G20   29.93F WCI  27
WAUKEGAN       FAIR      37  22  54 SW17G26   29.83F WCI  27
DUPAGE AIRPORT FAIR      34  22  61 SW20      29.88F WCI  23
KANKAKEE*      FAIR     N/A N/A N/A SW15      29.97S
WHEELING       FAIR      37  21  52 SW13G25   29.88F WCI  29
MORRIS*        FAIR      34  23  65 SW18      29.91F WCI  23
ROMEOVILLE*    FAIR      34  22  62 SW18      29.91F WCI  23
NORTHERLY ISL    N/A     35  19  52 SW6         N/A  WCI  30
$$

LMZ740>746-191800-
SOUTHERN LAKE MICHIGAN

STATION/POSITION SKY/WX   TEMP    WIND        PRES    VSBY  WAVE
                          AIR SEA DIR/SP/G                  HT/PER
                          (F)     (DEG/KT/KT) (MB)    (MI)  (FT/S)
HARRISON CRIB              35     200/ 18/ 21   N/A
BURNHAM HARBOR             35     230/  9/ 14   N/A
CALUMET HARBOR             33     200/ 14/ 18 1012.6R
BURNS HARBOR               33     210/ 14/ 19 1014.2S
MICHIGAN CITY              33     190/ 16/ 19   N/A
$$

ILZ025>027-034>036-040-047-049-050-058-095>099-191800-
WEST-CENTRAL ILLINOIS

CITY           SKY/WX    TMP DP  RH WIND       PRES   REMARKS
QUINCY         CLOUDY    40  20  44 S15       29.94F
GALESBURG*     FAIR      37  26  65 S17G25    29.90F WCI  27
MACOMB*        CLOUDY    39  24  55 SW18G25   29.94F WCI  29
JACKSONVILLE*  SUNNY     41  18  39 S17       29.98F
PITTSFIELD*    CLOUDY    43  22  42 S10G16    29.99F
$$

ILZ028>032-037-038-041>044-048-051>054-059>061-191800-
CENTRAL ILLINOIS

CITY           SKY/WX    TMP DP  RH WIND       PRES   REMARKS
PONTIAC        FAIR      35  23  63 SW17G23   29.95S WCI  24
BLOOMINGTON    FAIR      34  22  61 SW21      29.95F WCI  22
DECATUR        FAIR      35  24  64 SW23      30.00F WCI  23
PEORIA         FAIR      38  22  52 SW17      29.94F WCI  28
LACON*         FAIR      37  21  52 SW14G20   29.91F WCI  28
LINCOLN*       FAIR      39  23  51 SW8G17    29.97F WCI  34
SPRINGFIELD    FAIR      42  20  41 SW13G22   29.99F
TAYLORVILLE    FAIR      38  24  55 S17G25    30.02F WCI  29
$$

ILZ033-039-045-046-055>057-062-063-191800-
EAST-CENTRAL ILLINOIS

CITY           SKY/WX    TMP DP  RH WIND       PRES   REMARKS
CHAMPAIGN      FAIR      32  23  69 S20       30.00F WCI  20
DANVILLE*      FAIR      31  20  63 S18       29.99F WCI  19
RANTOUL*       FAIR      35  24  64 SW13G20   30.00F WCI  26
MATTOON        FAIR      32  20  61 S14       30.05F WCI  22
PARIS*         FAIR      32  22  65 S13       30.07F WCI  22
$$

ILZ079-100>102-191800-
SOUTHWEST ILLINOIS

CITY           SKY/WX    TMP DP  RH WIND       PRES   REMARKS
ALTON          MOSUNNY   41  21  45 SW14      30.07F
BELLEVILLE     SUNNY     42  19  38 SW10      30.08F
CAHOKIA*       SUNNY     43  16  33 S10       30.08F
SPARTA*        SUNNY     37  23  57 S12G17    30.13F WCI  29
$$

ILZ064>066-069>071-074>076-080>082-084>086-088>090-092>094-191800-
SOUTH-CENTRAL ILLINOIS

CITY           SKY/WX    TMP DP  RH WIND       PRES   REMARKS
CARBONDALE     FAIR      35  21  56 S16       30.17F WCI  25
CAIRO*         FAIR      30  19  64 S8        30.24F WCI  22
EFFINGHAM*     FAIR      36  22  56 S13       30.11F WCI  27
MARION         MOSUNNY   34  19  55 S14       30.19F WCI  24
MT. VERNON     FAIR      35  23  61 SW14      30.14F WCI  26
CENTRALIA*     SUNNY     38  24  58 S10       30.12S WCI  30
SALEM*         FAIR      38  22  51 S12       30.12S WCI  31
METROPOLIS*    FAIR      33  17  53 SW9       30.24F WCI  25
$$

ILZ067-068-072-073-078-083-087-091-191800-
SOUTHEAST ILLINOIS

CITY           SKY/WX    TMP DP  RH WIND       PRES   REMARKS
LAWRENCEVILLE  FAIR      30  20  66 S13       30.16S WCI  20
FLORA*         FAIR      34  22  61 S13       30.14S WCI  25
FAIRFIELD*     FAIR      31  21  67 S7        30.15S WCI  24
HARRISBURG*    FAIR      32  20  61 SW13G18   30.19F WCI  23
ROBINSON*      FAIR      32  20  60 S8        30.15S WCI  25
CARMI*         FAIR      31  21  68 S13       30.18S WCI  21
$$

ABBREVIATIONS USED IN REMARKS
   TC - TEMPERATURE IN CELSIUS
  WCI - WIND CHILL INDEX
   HX - HEAT INDEX
  VSB - VISIBILITY
$$





USA.gov is the U.S. government's official web portal to all federal, state and local government web resources and services.